Lid_Strength_Index
4 4 4 4 4 4 4 4 4 5 5 5 4 3 4 4 4 3 2 1 3 4 3 4 3 4 4 3 6 5 5 5 5 7 7 8 8 7 7 8 9 8 9 9 8 11 13 5 6 8 7 5 4 4
3 4 3 4 4 4 4 4 4 4 5 5 4 4 4 4 4 4 3 1 2 3 3 2 2 2 3 4 4 3 5 5 5 7 7 6 8 6 8 10 6 9 8 10 9 11 6 5 6 5 4 4 4 4
3 3 3 4 4 4 4 3 4 4 4 5 5 4 4 4 4 5 3 1 1 2 3 3 3 1 -0 1 1 4 3 4 3 3 5 6 10 7 9 8 7 6 5 6 7 6 6 5 4 4 4 4 3 3
3 3 3 4 4 4 4 4 4 3 4 4 5 4 4 4 4 5 2 1 1 2 5 4 0 1 -0 -0 1 1 3 2 2 3 4 6 8 5 8 7 7 6 5 6 7 6 5 5 4 4 4 4 3 3
3 3 3 3 4 4 4 3 3 3 4 4 5 4 4 4 4 4 1 0 0 3 5 4 1 1 0 1 1 1 1 3 3 4 5 6 6 6 5 5 6 4 6 7 9 6 5 6 4 4 4 4 3 3
3 3 3 3 4 3 3 3 3 3 4 4 5 5 4 4 4 3 3 0 -1 0 3 5 2 2 1 1 1 2 1 2 3 5 5 4 4 6 8 8 6 4 4 4 6 4 4 4 4 3 4 3 3 3
3 3 3 3 3 3 3 3 3 3 3 4 5 5 4 4 4 4 4 3 4 0 3 5 5 2 1 1 2 2 2 1 3 3 6 6 5 5 7 9 6 5 4 4 3 4 5 4 5 3 3 3 3 2
3 2 3 3 3 3 3 3 3 3 4 4 5 4 4 4 4 4 2 3 3 2 2 5 5 4 1 4 4 2 3 3 3 4 4 5 5 6 8 6 5 6 4 4 3 3 3 3 4 3 3 3 4 4
3 3 3 3 3 3 3 3 3 3 4 4 4 4 3 3 3 2 3 3 0 2 5 4 6 8 2 3 2 2 2 5 3 5 6 5 7 9 6 5 5 4 5 4 4 3 3 3 4 4 3 3 4 4
2 3 3 3 3 3 3 3 3 3 4 4 4 4 5 2 3 3 2 3 3 2 3 5 3 5 3 4 5 4 4 5 7 5 4 6 6 3 4 4 3 3 3 3 4 4 4 4 3 3 3 3 4 3
3 3 3 3 3 3 3 3 3 4 5 5 5 3 1 3 2 3 5 6 5 6 4 4 4 5 2 6 6 5 6 6 8 6 7 7 7 5 4 4 2 3 2 2 3 3 3 3 3 3 3 2 2 2
3 3 3 3 3 3 3 3 4 4 4 4 3 2 1 3 4 7 7 6 6 6 4 4 4 4 3 2 4 5 6 6 9 6 7 8 8 5 4 4 3 2 2 3 2 3 2 2 2 2 2 2 2 1
2 3 3 3 3 3 3 4 4 5 4 2 3 4 3 4 11 10 10 8 7 4 4 4 5 3 3 3 5 6 9 9 5 8 8 8 6 4 4 3 3 2 2 2 2 2 2 2 2 2 2 2 1 2
2 2 3 3 3 3 3 4 5 4 4 4 6 11 7 8 8 7 7 5 4 2 4 3 4 4 3 5 6 9 6 6 10 10 9 7 6 5 4 3 3 3 3 3 3 2 2 2 2 2 2 1 2 2
1 2 2 2 2 3 3 4 4 3 3 6 5 10 8 5 4 3 3 3 3 2 3 4 4 3 5 6 6 7 9 10 9 9 8 6 5 4 4 3 3 3 3 3 2 2 2 2 2 2 1 1 1 1
0 1 2 1 1 2 3 4 4 2 3 4 5 6 4 6 5 4 4 4 2 3 3 4 5 7 7 7 8 9 9 10 9 7 5 4 4 3 3 2 3 2 2 2 2 2 2 2 2 2 1 1 2 2
0 1 1 2 1 2 3 3 3 5 5 6 6 4 4 4 4 4 3 3 1 4 6 4 9 8 6 8 9 5 8 8 6 6 4 3 3 3 3 2 2 2 3 3 2 2 2 2 1 2 3 2 1 1
1 -0 -0 1 2 3 3 3 4 5 7 5 5 4 3 3 4 3 2 2 2 3 4 7 4 8 8 9 8 6 5 5 4 4 4 3 2 2 2 3 3 3 3 3 2 2 2 2 3 3 2 2 1 2
-0 -1 0 1 2 4 4 4 3 6 5 4 3 2 3 3 2 2 2 2 2 1 3 4 7 8 8 5 6 5 5 4 4 4 3 2 2 2 2 3 2 2 3 3 2 2 2 2 2 2 2 2 2 2
-1 -0 0 1 3 4 7 5 2 4 5 4 3 4 3 3 3 3 2 3 3 4 5 6 6 6 5 4 3 4 3 2 3 3 3 3 2 2 2 2 3 2 2 3 2 3 2 2 2 1 2 2 2 2
0 0 1 2 1 2 3 4 4 3 3 3 3 3 4 3 4 4 4 2 4 5 6 4 4 4 2 2 2 2 2 2 3 3 3 3 2 2 2 3 2 2 3 3 3 3 3 2 2 1 2 1 1 1
1 0 0 1 2 2 3 1 3 2 3 4 4 4 5 6 5 5 2 4 4 4 3 3 3 3 3 3 2 2 2 2 1 2 4 3 3 3 4 3 3 3 3 3 2 2 2 1 1 2 2 1 3 1
1 -1 0 2 4 5 6 1 5 4 7 6 4 6 5 5 4 2 5 3 4 2 2 1 2 1 2 2 2 2 1 2 3 2 3 3 3 3 3 3 3 3 4 2 1 2 2 4 2 2 1 1 2 1
2 2 5 5 4 7 4 6 4 4 5 6 7 8 6 5 3 4 6 3 3 2 2 2 2 2 2 3 3 3 3 2 2 2 2 3 4 4 2 2 2 2 2 1 1 2 1 1 3 1 1 1 1 1
6 6 5 9 4 6 7 6 6 5 8 7 7 7 6 3 5 8 8 5 3 2 2 2 2 2 3 3 3 3 2 2 3 4 3 2 3 3 2 2 2 1 1 1 2 1 1 1 1 1 1 1 1 1
9 5 8 6 5 6 6 8 8 7 6 7 6 4 3 5 8 10 5 5 4 3 3 3 3 3 3 2 4 4 3 2 2 3 2 1 2 3 3 3 3 2 -0 0 1 1 1 1 2 2 1 1 5 1
9 7 5 2 3 3 4 4 4 4 7 7 5 6 6 9 10 6 4 2 3 2 2 2 2 2 2 3 3 2 2 1 1 1 1 1 1 1 1 2 3 1 -0 0 0 1 1 1 1 1 1 0 1 0
5 5 7 5 5 3 6 6 7 7 6 4 4 8 8 8 8 4 3 2 1 1 1 1 1 2 3 2 2 1 1 1 1 1 1 1 1 0 -0 0 -0 6 0 -0 0 0 0 1 1 1 1 1 0 -1
5 4 5 6 6 5 6 6 7 6 4 5 7 7 6 4 3 3 2 1 1 2 3 3 3 2 1 1 1 2 2 2 3 4 4 4 3 2 0 0 1 0 0 0 7 5 1 1 0 1 0 0 -0 -0
6 3 7 7 7 8 6 4 4 3 3 4 4 4 4 4 3 2 2 2 2 4 2 2 2 2 2 3 2 2 1 1 1 2 3 3 2 1 0 0 0 0 -0 0 0 0 6 2 2 1 1 1 1 1
4 4 6 6 7 6 5 3 3 3 4 5 5 7 7 5 3 2 2 2 2 2 2 2 2 2 2 2 2 3 3 1 0 0 0 -0 0 0 -0 -0 -0 -0 -1 -1 -0 0 0 1 1 1 1 1 1 1
7 8 8 9 8 5 4 5 6 6 6 6 7 6 5 5 6 3 1 1 2 2 3 3 3 3 0 0 0 0 4 0 -1 -0 0 0 0 -0 -0 -0 -0 -0 -0 0 0 0 1 1 1 1 1 1 1 1
7 7 7 7 7 7 6 6 6 7 6 6 6 5 5 5 5 3 0 0 1 2 1 1 0 0 0 0 0 -0 2 -0 4 9 8 9 10 6 1 0 -1 -1 0 0 0 0 1 1 1 1 1 1 1 1